Nuuk, Greenland

3:41 AM -02 on April 25, 2017 (GMT -0200)
Nuuk

Weather History for BGGH - November, 2012

Change the Weather History Date:

Sunday, November 4, 2012

  Actual Average Record
Temperature  
Mean Temperature 38 °F -  
Max Temperature 42 °F 27 °F 42 °F (1997)
Min Temperature 35 °F 21 °F 14 °F (2015)
Degree Days  
Heating Degree Days 26    
Moisture  
Dew Point 37 °F    
Average Humidity 87    
Maximum Humidity 100    
Minimum Humidity 66    
Precipitation  
Precipitation 1.06 in - - ()
Sea Level Pressure  
Sea Level Pressure 29.55 in    
Wind  
Wind Speed 21 mph ()    
Max Wind Speed 47 mph    
Max Gust Speed 64 mph    
Visibility 5.2 miles    
Events Fog , Rain , Snow    
Averages and records for this station are not official NWS values.
T = Trace of Precipitation, MM = Missing Value Source: Averaged Metar Reports

Daily Weather History Graph

Daily Weather History Graph

Search for Another Location

Airport or City:

Trip Planner

Search our weather history database for the weather conditions in past years. The results will help you decide how hot, cold, wet, or windy it might be!

Date:

Astronomy

Nov. 04, 2012 Rise Set
Actual Time 8:21 AM -03 3:58 PM -03
Civil Twilight 7:26 AM -03 4:53 PM -03
Nautical Twilight 6:28 AM -03 5:51 PM -03
Astronomical Twilight 5:33 AM -03 6:46 PM -03
Moon 8:05 PM -03 (11/4) 1:30 PM -03 (11/4)
Length of Visible Light 9h 26m
Length of Day
7h 36m
Waning Gibbous, 73% of the Moon is Illuminated
Nov 4
Waning Gibbous
Nov 6
Last Quarter
Nov 13
New
Nov 20
First Quarter
Nov 28
Full

Hourly Weather History & Observations

Time (-03) Temp. Windchill Dew Point Humidity Pressure Visibility Wind Dir Wind Speed Gust Speed Precip Events Conditions
12:00 AM 42 °F - 37 °F 75% 29.62 in 28 mi South 35.7 mph - -   Scattered Clouds
12:20 AM 44.6 °F 32.9 °F 35.6 °F 71% 29.62 in 6.2 mi South 43.7 mph 64.4 mph N/A Rain Light Rain Showers
12:50 AM 42.8 °F 30.3 °F 35.6 °F 76% 29.62 in 3.7 mi South 44.9 mph 64.4 mph N/A Rain Light Rain Showers
1:20 AM 42.8 °F 30.3 °F 37.4 °F 81% 29.59 in 3.1 mi South 44.9 mph 62.1 mph N/A Rain Rain
1:50 AM 42.8 °F 30.0 °F 41.0 °F 93% 29.59 in - South 47.2 mph 64.4 mph N/A Rain Rain
2:20 AM 44.6 °F 33.5 °F 37.4 °F 76% 29.59 in 6.2 mi South 39.1 mph 52.9 mph N/A Rain Light Rain
2:50 AM 44.6 °F 34.4 °F 41.0 °F 87% 29.59 in 3.1 mi South 32.2 mph 43.7 mph N/A Rain Rain
3:00 AM 40 °F - 38 °F 92% 29.60 in 6 mi South 26.5 mph - - Rain Light Rain
3:20 AM 44.6 °F 35.1 °F 41.0 °F 87% 29.62 in 4.3 mi South 27.6 mph 39.1 mph N/A Rain Rain
3:50 AM 39.2 °F 30.2 °F 39.2 °F 100% 29.59 in 3.7 mi SSW 17.3 mph - N/A Rain Light Rain
4:20 AM 46.4 °F 37.9 °F 39.2 °F 76% 29.59 in 4.3 mi South 25.3 mph 36.8 mph N/A   Heavy Drizzle
4:50 AM 46.4 °F 37.7 °F 42.8 °F 87% 29.59 in 6.2 mi South 26.5 mph 43.7 mph N/A Rain Light Rain
5:20 AM 48.2 °F - 39.2 °F 71% 29.59 in 5.0 mi South 24.2 mph 35.7 mph N/A Rain Light Rain
5:50 AM 48.2 °F - 37.4 °F 66% 29.59 in 6.2 mi South 18.4 mph 36.8 mph N/A Rain Light Rain
6:00 AM 38 °F - 37 °F 95% 29.58 in 0 mi WSW 6.9 mph - - Rain Light Rain
6:20 AM 41.0 °F 36.4 °F 39.2 °F 93% 29.59 in 4.3 mi Variable 6.9 mph - N/A Rain Rain
6:50 AM 46.4 °F 42.4 °F 37.4 °F 71% 29.56 in 3.1 mi East 8.1 mph 19.6 mph N/A Rain Rain
7:20 AM 46.4 °F 41.1 °F 39.2 °F 76% 29.56 in 6.2 mi SSE 11.5 mph 27.6 mph N/A Rain Rain
7:50 AM 41.0 °F 39.0 °F 39.2 °F 93% 29.56 in 6.2 mi North 3.5 mph - N/A Rain Rain
8:50 AM 42.8 °F - 37.4 °F 81% 29.56 in 6.2 mi West 2.3 mph - N/A Rain Rain
9:50 AM 39.2 °F 34.2 °F 37.4 °F 93% 29.53 in 6.2 mi ENE 6.9 mph - N/A Rain Rain
10:50 AM 39.2 °F 35.9 °F 39.2 °F 100% 29.53 in 4.3 mi ENE 4.6 mph - N/A Fog , Rain Light Rain
12:00 PM 39 °F - 38 °F 94% 29.51 in 5 mi NE 15.0 mph - - Rain Light Rain
12:50 PM 39.2 °F 33.0 °F 35.6 °F 87% 29.53 in 6.2 mi ENE 9.2 mph - N/A Rain Light Rain
1:20 PM 41.0 °F 34.7 °F 35.6 °F 81% 29.53 in 5.6 mi ENE 10.4 mph - N/A Rain Rain
1:50 PM 39.2 °F 33.0 °F 35.6 °F 87% 29.53 in 6.2 mi East 9.2 mph - N/A Rain Rain
2:20 PM 39.2 °F 32.5 °F 35.6 °F 87% 29.53 in 6.2 mi ENE 10.4 mph - N/A Rain Light Rain
2:50 PM 39.2 °F 32.5 °F 35.6 °F 87% 29.53 in 6.2 mi ENE 10.4 mph - N/A Rain Light Rain
3:00 PM 39 °F - 36 °F 83% 29.52 in 8 mi NE 13.8 mph - - Snow Light Snow
3:20 PM 39.2 °F 32.5 °F 35.6 °F 87% 29.53 in 5.0 mi ENE 10.4 mph - N/A Rain Light Rain
3:50 PM 39.2 °F 32.0 °F 35.6 °F 87% 29.53 in 4.3 mi ENE 11.5 mph - N/A Rain Light Rain
4:20 PM 39.2 °F 32.5 °F 35.6 °F 87% 29.53 in 4.3 mi ENE 10.4 mph - N/A Rain Light Rain
4:50 PM 39.2 °F 32.0 °F 35.6 °F 87% 29.56 in 4.3 mi ENE 11.5 mph - N/A Rain Light Rain
5:20 PM 39.2 °F 32.0 °F 35.6 °F 87% 29.56 in 3.1 mi East 11.5 mph - N/A Rain Light Rain
5:50 PM 39.2 °F 32.0 °F 35.6 °F 87% 29.56 in 6.2 mi ENE 11.5 mph - N/A Rain Light Rain
6:00 PM 38 °F - 36 °F 87% 29.53 in 10 mi NE 13.8 mph - - Rain Light Rain
6:20 PM 39.2 °F 32.5 °F 35.6 °F 87% 29.53 in 6.2 mi ENE 10.4 mph - N/A   Drizzle
6:50 PM 37.4 °F 30.3 °F 35.6 °F 93% 29.53 in 6.2 mi NE 10.4 mph - N/A   Light Drizzle
7:20 PM 39.2 °F 33.0 °F 35.6 °F 87% 29.53 in 6.2 mi ENE 9.2 mph - N/A   Overcast
7:50 PM 39.2 °F 33.0 °F 35.6 °F 87% 29.53 in 6.2 mi ENE 9.2 mph - N/A   Overcast
8:20 PM 37.4 °F 29.8 °F 35.6 °F 93% 29.50 in 6.2 mi NE 11.5 mph - N/A   Overcast
8:50 PM 39.2 °F 32.5 °F 35.6 °F 87% 29.50 in 6.2 mi ENE 10.4 mph - N/A   Overcast
9:00 PM 37 °F - 36 °F 94% 29.49 in 31 mi NNE 16.1 mph - -   Clear
9:20 PM 39.2 °F 32.0 °F 35.6 °F 87% 29.50 in 6.2 mi ENE 11.5 mph - N/A   Overcast
9:50 PM 35.6 °F 26.6 °F 35.6 °F 100% 29.47 in - NE 13.8 mph - N/A   Overcast
10:20 PM 35.6 °F 27.1 °F 35.6 °F 100% 29.47 in 1.0 mi NE 12.7 mph - N/A Fog , Snow Light Snow Showers
10:50 PM 37.4 °F 29.3 °F 35.6 °F 93% 29.44 in 6.2 mi ENE 12.7 mph - N/A   Mostly Cloudy
11:20 PM 37.4 °F 29.3 °F 35.6 °F 93% 29.44 in 3.1 mi ENE 12.7 mph - N/A   Mostly Cloudy
11:50 PM 35.6 °F 28.6 °F 35.6 °F 100% 29.44 in 6.2 mi NE 9.2 mph - N/A   Mostly Cloudy